Regional Weather Roundup
Issued by NWS

Home | Current Version | Previous Version | Text Only | Print | Product List | Glossary On
Versions: 1 2 3 4 5 6 7 8 9 10 11 12 13 14 15 16 17 18 19 20 21 22 23 24 25 26 27 28 29 30 31 32 33 34 35 36 37 38 39 40 41 42 43 44 45 46 47 48 49 50
000
ASUS44 KLIX 260801
RWRLA
LOUISIANA WEATHER ROUNDUP
NATIONAL WEATHER SERVICE NEW ORLEANS LA
300 AM CDT SAT JUL 26 2014

NOTE: "FAIR" INDICATES FEW OR NO CLOUDS BELOW 12,000 FEET WITH NO
      SIGNIFICANT WEATHER AND/OR OBSTRUCTIONS TO VISIBILITY.
      SKY/WX - SKY CONDITION AND SIGNIFICANT WEATHER.
      TMP - AIR TEMPERATURE.    DP   - DEWPOINT TEMPERATURE.
      RH  - RELATIVE HUMIDITY.  PRES - PRESSURE.
      HX  - HEAT INDEX.         WCI  - WIND CHILL INDEX.

*  THESE STATIONS ARE NOT NWS OR FAA STATIONS AND ARE NOT UNDER
   NWS QUALITY CONTROL.

LAZ040-048-061>063-065-066-069-260900-
SOUTHEAST LOUISIANA

CITY           SKY/WX    TMP DP  RH WIND       PRES   REMARKS
N.O. AUDUBON   NOT AVBL
N.O. INTL ARPT PTCLDY    79  75  87 SW7       30.01S
N.O. LAKEFRONT PTCLDY    81  76  84 SW9       30.01F
N.O. DOWNTOWN* FAIR      81  72  74 SW3       30.01S
SLIDELL        PTCLDY    77  74  90 CALM      30.00F
BATON ROUGE    PTCLDY    79  74  84 SW7       30.00F
BOOTHVILLE     MOCLDY    83  76  79 SW9       30.02S
BELLE CHASSE   MOCLDY    78  74  87 CALM      30.01S
BOGALUSA*      FAIR      77  74  88 CALM      30.02F FOG
GALLIANO*      NOT AVBL
NEW ROADS*     FAIR      77  75  95 CALM      30.00F
GONZALES*      FAIR      77  77 100 CALM      30.00F
HAMMOND*       PTCLDY    79  73  83 CALM      30.02S
HOUMA*         PTCLDY    78  73  85 CALM      30.01F
PORT FOURCHON* MOSUNNY   82  75  78 SW8       30.03F

$$

LAZ041-044-053-054-260900-
SOUTHWEST LOUISIANA

CITY           SKY/WX    TMP DP  RH WIND       PRES   REMARKS
LAKE CHARLES   CLEAR     80  76  87 SW3       29.99F
LAFAYETTE      PTCLDY    78  75  90 SW5       30.00F
PATTERSON      CLEAR     75  75 100 CALM      30.04F
SALT POINT       N/A     86  76  71 VRB6      30.00F HX  96
NEW IBERIA     CLEAR     78  75  90 SW3       30.01F
CHENAULT AIRPK CLEAR     81  75  83 SW6       30.00F

$$

LAZ027-028-260900-
CENTRAL LOUISIANA

CITY           SKY/WX    TMP DP  RH WIND       PRES   REMARKS
FORT POLK      CLEAR     78  75  90 CALM      30.00F
ALEXANDRIA INT CLEAR     78  75  90 SW5       29.97F
ALEXANDRIA     CLEAR     77  74  90 CALM      29.99S

$$

LAZ001-002-260900-
NORTHWEST LOUISIANA

CITY           SKY/WX    TMP DP  RH WIND       PRES   REMARKS
SHREVEPORT     PTCLDY    75  72  90 CALM      29.97S
BARKSDALE AFB  CLEAR     74  73  97 SE5       29.97S
DTN SHREVEPORT CLEAR     77  71  82 CALM      29.97S

$$

LAZ014-016-260900-
NORTHEAST LOUISIANA

CITY           SKY/WX    TMP DP  RH WIND       PRES   REMARKS
MONROE         CLEAR     74  73  97 CALM      29.99S FOG
TALLULAH       CLEAR     70  69  97 CALM      29.98F FOG

$$




USA.gov is the U.S. government's official web portal to all federal, state and local government web resources and services.